KQA601 HKKI-HKJK

Flight info

Callsign KQA601
Flight time 0h 32m
Altitude 23000
Route IBSUL1A IBSUL DCT NAKAT NAKAT4A
Aircraft B738/M-SDE2E3FGHIRWXY/LB1

Departure

Time 2026-04-14 05:26
Airport Kisumu International Airport (HKKI)

Arrival

Time 2026-04-14 05:58
Airport Jomo Kenyatta International Airport (HKJK)
Time Latitude Longitude Altitude Speed Heading
2026-04-14 05:09 -0.08262 34.72896 3750 ft 0 kts 63°
2026-04-14 05:21 -0.08261 34.72897 3750 ft 1 kts 63°
2026-04-14 05:21 -0.08245 34.72937 3757 ft 11 kts 85°
2026-04-14 05:21 -0.08336 34.72994 3750 ft 14 kts 183°
2026-04-14 05:22 -0.08416 34.72887 3753 ft 27 kts 242°
2026-04-14 05:22 -0.08522 34.72686 3752 ft 37 kts 242°
2026-04-14 05:22 -0.08652 34.72444 3753 ft 42 kts 242°
2026-04-14 05:22 -0.08797 34.72173 3755 ft 47 kts 242°
2026-04-14 05:23 -0.08932 34.71922 3754 ft 19 kts 242°
2026-04-14 05:23 -0.08997 34.71849 3756 ft 10 kts 159°
2026-04-14 05:23 -0.09083 34.71900 3760 ft 18 kts 159°
2026-04-14 05:23 -0.09172 34.71821 3756 ft 23 kts 239°
2026-04-14 05:24 -0.09260 34.71657 3757 ft 31 kts 242°
2026-04-14 05:24 -0.09365 34.71462 3749 ft 25 kts 242°
2026-04-14 05:24 -0.09379 34.71330 3747 ft 14 kts 247°
2026-04-14 05:24 -0.09424 34.71340 3747 ft 8 kts 101°
2026-04-14 05:25 -0.09415 34.71370 3750 ft 0 kts 60°
2026-04-14 05:25 -0.09399 34.71398 3751 ft 26 kts 60°
2026-04-14 05:25 -0.09191 34.71782 3752 ft 98 kts 62°
2026-04-14 05:26 -0.08765 34.72570 3786 ft 158 kts 62°
2026-04-14 05:26 -0.08164 34.73650 4091 ft 184 kts 59°
2026-04-14 05:26 -0.07528 34.74701 5125 ft 179 kts 69°
2026-04-14 05:26 -0.07487 34.75936 5770 ft 183 kts 109°
2026-04-14 05:27 -0.08298 34.76939 6273 ft 206 kts 150°
2026-04-14 05:27 -0.09780 34.77299 6465 ft 233 kts 170°
2026-04-14 05:27 -0.11427 34.77666 6743 ft 252 kts 163°
2026-04-14 05:27 -0.13158 34.78175 7081 ft 265 kts 161°
2026-04-14 05:28 -0.14947 34.78759 7500 ft 275 kts 160°
2026-04-14 05:28 -0.16775 34.79386 7949 ft 282 kts 159°
2026-04-14 05:28 -0.18641 34.80048 8446 ft 286 kts 158°
2026-04-14 05:28 -0.20474 34.80711 9366 ft 272 kts 158°
2026-04-14 05:29 -0.22243 34.81359 10038 ft 273 kts 157°
2026-04-14 05:29 -0.24081 34.82041 10293 ft 293 kts 157°
2026-04-14 05:29 -0.26078 34.82787 10404 ft 320 kts 158°
2026-04-14 05:29 -0.28234 34.83593 10698 ft 339 kts 158°
2026-04-14 05:30 -0.30465 34.84426 11320 ft 345 kts 158°
2026-04-14 05:30 -0.32720 34.85267 12057 ft 347 kts 157°
2026-04-14 05:30 -0.34987 34.86114 12797 ft 350 kts 157°
2026-04-14 05:30 -0.37279 34.86971 13526 ft 354 kts 157°
2026-04-14 05:31 -0.39602 34.87840 14189 ft 358 kts 157°
2026-04-14 05:31 -0.41941 34.88721 14833 ft 360 kts 155°
2026-04-14 05:31 -0.44080 34.89995 15436 ft 360 kts 136°
2026-04-14 05:31 -0.45792 34.91829 16093 ft 361 kts 129°
2026-04-14 05:32 -0.47415 34.93754 16694 ft 365 kts 128°
2026-04-14 05:32 -0.48874 34.95520 17209 ft 368 kts 128°
2026-04-14 05:32 -0.50568 34.97570 17818 ft 372 kts 128°
2026-04-14 05:32 -0.52228 34.99567 18379 ft 376 kts 129°
2026-04-14 05:33 -0.53913 35.01582 18865 ft 379 kts 129°
2026-04-14 05:33 -0.55609 35.03599 19356 ft 382 kts 129°
2026-04-14 05:33 -0.57330 35.05638 19851 ft 385 kts 129°
2026-04-14 05:34 -0.60820 35.09767 20807 ft 392 kts 129°
2026-04-14 05:34 -0.62586 35.11853 21050 ft 395 kts 129°
2026-04-14 05:34 -0.64374 35.13967 21087 ft 400 kts 129°
2026-04-14 05:34 -0.66156 35.16074 21086 ft 403 kts 129°
2026-04-14 05:35 -0.67986 35.18237 21091 ft 401 kts 129°
2026-04-14 05:35 -0.69785 35.20364 21093 ft 400 kts 129°
2026-04-14 05:35 -0.71560 35.22461 21099 ft 400 kts 129°
2026-04-14 05:35 -0.73354 35.24583 21108 ft 400 kts 129°
2026-04-14 05:36 -0.75149 35.26704 21110 ft 400 kts 129°
2026-04-14 05:36 -0.76944 35.28827 21112 ft 400 kts 129°
2026-04-14 05:36 -0.78739 35.30950 21115 ft 400 kts 129°
2026-04-14 05:36 -0.80535 35.33074 21119 ft 400 kts 129°
2026-04-14 05:37 -0.82336 35.35202 21120 ft 401 kts 129°
2026-04-14 05:37 -0.84056 35.37390 21113 ft 400 kts 121°
2026-04-14 05:37 -0.85410 35.39815 21131 ft 399 kts 116°
2026-04-14 05:37 -0.86654 35.42290 21125 ft 399 kts 115°
2026-04-14 05:38 -0.87876 35.44787 21129 ft 399 kts 115°
2026-04-14 05:38 -0.89096 35.47275 21124 ft 399 kts 115°
2026-04-14 05:38 -0.90329 35.49759 21130 ft 398 kts 116°
2026-04-14 05:38 -0.91569 35.52231 21131 ft 398 kts 116°
2026-04-14 05:39 -0.92813 35.54688 21134 ft 398 kts 116°
2026-04-14 05:39 -0.94070 35.57156 21139 ft 397 kts 116°
2026-04-14 05:39 -0.95320 35.59604 21145 ft 397 kts 116°
2026-04-14 05:39 -0.96581 35.62070 21147 ft 397 kts 116°
2026-04-14 05:40 -0.97813 35.64479 21152 ft 397 kts 116°
2026-04-14 05:40 -0.99093 35.66981 21149 ft 397 kts 116°
2026-04-14 05:40 -1.00350 35.69439 21154 ft 397 kts 116°
2026-04-14 05:40 -1.01592 35.71866 21156 ft 398 kts 116°
2026-04-14 05:41 -1.02852 35.74330 21155 ft 398 kts 116°
2026-04-14 05:41 -1.04112 35.76794 21165 ft 398 kts 116°
2026-04-14 05:41 -1.05371 35.79255 21160 ft 399 kts 116°
2026-04-14 05:41 -1.06635 35.81725 21158 ft 399 kts 116°
2026-04-14 05:42 -1.07892 35.84184 21166 ft 399 kts 116°
2026-04-14 05:42 -1.09156 35.86656 21166 ft 399 kts 116°
2026-04-14 05:42 -1.10416 35.89122 21165 ft 399 kts 116°
2026-04-14 05:42 -1.11679 35.91591 21169 ft 399 kts 116°
2026-04-14 05:43 -1.12940 35.94058 21170 ft 399 kts 116°
2026-04-14 05:43 -1.14199 35.96521 21165 ft 396 kts 116°
2026-04-14 05:43 -1.15437 35.98940 21152 ft 384 kts 116°
2026-04-14 05:43 -1.16641 36.01295 21157 ft 379 kts 116°
2026-04-14 05:44 -1.17835 36.03631 21164 ft 377 kts 116°
2026-04-14 05:44 -1.19025 36.05959 21022 ft 376 kts 116°
2026-04-14 05:44 -1.20208 36.08274 20726 ft 372 kts 116°
2026-04-14 05:44 -1.21381 36.10570 20314 ft 370 kts 116°
2026-04-14 05:45 -1.22549 36.12853 19911 ft 367 kts 116°
2026-04-14 05:45 -1.23709 36.15122 19495 ft 365 kts 116°
2026-04-14 05:45 -1.24861 36.17376 19048 ft 364 kts 116°
2026-04-14 05:45 -1.26007 36.19620 18626 ft 363 kts 116°
2026-04-14 05:46 -1.27156 36.21867 18153 ft 362 kts 116°
2026-04-14 05:46 -1.28296 36.24098 17698 ft 359 kts 116°
2026-04-14 05:46 -1.29428 36.26313 17269 ft 357 kts 116°
2026-04-14 05:46 -1.30552 36.28512 16846 ft 354 kts 116°
2026-04-14 05:47 -1.31665 36.30691 16432 ft 351 kts 116°
2026-04-14 05:47 -1.32770 36.32852 16023 ft 348 kts 116°
2026-04-14 05:47 -1.33870 36.35005 15616 ft 346 kts 116°
2026-04-14 05:47 -1.34959 36.37137 15211 ft 343 kts 116°
2026-04-14 05:48 -1.35928 36.39311 14666 ft 345 kts 110°
2026-04-14 05:48 -1.36750 36.41542 14206 ft 337 kts 109°
2026-04-14 05:48 -1.37515 36.43731 13803 ft 331 kts 108°
2026-04-14 05:48 -1.38272 36.45894 13371 ft 330 kts 108°
2026-04-14 05:49 -1.39037 36.48050 12972 ft 327 kts 109°
2026-04-14 05:49 -1.39800 36.50172 12660 ft 322 kts 109°
2026-04-14 05:49 -1.40548 36.52232 12373 ft 316 kts 109°
2026-04-14 05:49 -1.41297 36.54285 11972 ft 315 kts 109°
2026-04-14 05:50 -1.42052 36.56346 11565 ft 315 kts 109°
2026-04-14 05:50 -1.42779 36.58329 11242 ft 312 kts 109°
2026-04-14 05:50 -1.43525 36.60361 10878 ft 310 kts 109°
2026-04-14 05:50 -1.44258 36.62356 10741 ft 301 kts 109°
2026-04-14 05:51 -1.44960 36.64265 10830 ft 280 kts 109°
2026-04-14 05:51 -1.45604 36.66015 10839 ft 258 kts 109°
2026-04-14 05:51 -1.46181 36.67582 11032 ft 226 kts 108°
2026-04-14 05:51 -1.46703 36.69005 10913 ft 209 kts 108°
2026-04-14 05:52 -1.47106 36.70324 10773 ft 191 kts 92°
2026-04-14 05:52 -1.46756 36.71560 10522 ft 185 kts 62°
2026-04-14 05:52 -1.46139 36.72686 10180 ft 185 kts 64°
2026-04-14 05:52 -1.45534 36.73798 9984 ft 176 kts 62°
2026-04-14 05:53 -1.44887 36.74829 9967 ft 173 kts 59°
2026-04-14 05:53 -1.44217 36.75807 9703 ft 168 kts 57°
2026-04-14 05:53 -1.43533 36.76769 9226 ft 172 kts 56°
2026-04-14 05:53 -1.42830 36.77746 8752 ft 174 kts 56°
2026-04-14 05:54 -1.42362 36.78390 8514 ft 170 kts 56°
2026-04-14 05:54 -1.41678 36.79332 8276 ft 168 kts 56°
2026-04-14 05:54 -1.40983 36.80290 8069 ft 171 kts 56°
2026-04-14 05:54 -1.40281 36.81256 7842 ft 172 kts 56°
2026-04-14 05:55 -1.39581 36.82219 7638 ft 171 kts 56°
2026-04-14 05:55 -1.38882 36.83182 7411 ft 172 kts 56°
2026-04-14 05:55 -1.38203 36.84115 7228 ft 159 kts 57°
2026-04-14 05:55 -1.37570 36.84988 7012 ft 149 kts 55°
2026-04-14 05:56 -1.36974 36.85809 6835 ft 143 kts 57°
2026-04-14 05:56 -1.36394 36.86606 6654 ft 140 kts 56°
2026-04-14 05:56 -1.35818 36.87401 6494 ft 144 kts 56°
2026-04-14 05:56 -1.35231 36.88209 6292 ft 141 kts 56°
2026-04-14 05:57 -1.34653 36.89005 6068 ft 142 kts 56°
2026-04-14 05:57 -1.34069 36.89810 5854 ft 144 kts 55°
2026-04-14 05:57 -1.33486 36.90620 5669 ft 146 kts 56°
2026-04-14 05:57 -1.32896 36.91439 5444 ft 144 kts 52°
2026-04-14 05:58 -1.32317 36.92228 5336 ft 135 kts 54°
2026-04-14 05:58 -1.31827 36.92910 5309 ft 110 kts 53°
2026-04-14 05:58 -1.31564 36.93310 5307 ft 21 kts 101°
2026-04-14 05:58 -1.31650 36.93387 5303 ft 16 kts 144°
2026-04-14 05:59 -1.31735 36.93451 5304 ft 15 kts 143°
2026-04-14 05:59 -1.31828 36.93466 5309 ft 15 kts 218°
2026-04-14 05:59 -1.31888 36.93386 5307 ft 14 kts 234°
2026-04-14 05:59 -1.31944 36.93310 5313 ft 13 kts 233°
2026-04-14 06:00 -1.31998 36.93236 5306 ft 13 kts 234°
2026-04-14 06:00 -1.32050 36.93164 5315 ft 13 kts 233°
2026-04-14 06:00 -1.32101 36.93095 5313 ft 12 kts 234°
2026-04-14 06:00 -1.32151 36.93026 5319 ft 12 kts 234°
2026-04-14 06:01 -1.32199 36.92960 5318 ft 12 kts 235°
2026-04-14 06:01 -1.32246 36.92895 5319 ft 11 kts 233°
2026-04-14 06:01 -1.32293 36.92833 5320 ft 11 kts 235°
2026-04-14 06:01 -1.32337 36.92771 5319 ft 13 kts 233°
2026-04-14 06:02 -1.32415 36.92665 5320 ft 25 kts 233°
2026-04-14 06:02 -1.32539 36.92497 5316 ft 35 kts 233°
2026-04-14 06:02 -1.32636 36.92366 5317 ft 14 kts 227°
2026-04-14 06:02 -1.32719 36.92375 5323 ft 13 kts 144°
2026-04-14 06:03 -1.32796 36.92386 5318 ft 11 kts 172°
2026-04-14 06:03 -1.32857 36.92413 5319 ft 7 kts 156°
2026-04-14 06:03 -1.32882 36.92423 5320 ft 0 kts 156°